OSCAR 7 (AO-7)

Last updated on Tue Aug 25 2026 00:03:13 GMT+0000 (Coordinated Universal Time)

1 07530U 74089B 26236.27892306 -.00000028 00000+0 11372-3 0 9996 2 07530 101.9921 250.2374 0012255 3.2594 7.1380 12.53699200369050
UTC large
Height (km)
Speed (km/s)
/
Latitude / Longitude
Inclination (degrees)
Orbital Period (minutes)
Azimuth
Elevation
Range (km)
Doppler Factor

Next 0 passes for location: London (51.5072 / 0.1276)

No passes found over London.
OSCAR 7 (AO-7)